Wind_Speed
14 14 15 15 15 15 15 15 15 15 15 15 15 16 16 16 17 17 18 19 19 19 18 16 12 10 8 9 9 9 10 5 2 2 4 5 5 5 6 6 5 5 5 5 6 5 5 6 10 13 5 2 4 4 7 5 1 3 2 2 3 1 2 2 3 2 2 2 3 3 2 2 4 6 3 3 8 9 7 7 9 9 11 14 23 35 34 29
15 15 15 15 16 16 16 16 16 16 16 16 16 17 17 18 18 18 19 20 20 18 17 14 10 8 7 8 7 8 11 5 2 6 8 8 5 6 7 8 8 7 7 7 8 6 3 4 6 7 3 2 3 4 7 5 2 3 1 2 2 3 4 3 4 3 1 3 1 1 4 5 5 3 1 4 6 6 7 8 11 13 13 17 27 32 29 30
16 16 16 16 16 17 17 17 17 17 17 17 17 17 18 19 19 20 20 20 19 17 15 12 8 6 6 6 6 8 10 5 2 6 7 8 7 7 7 9 9 8 8 9 9 9 9 8 7 4 4 5 4 6 7 3 2 2 3 2 3 4 5 4 6 4 1 2 0 2 3 9 6 3 2 3 5 5 9 10 12 16 15 17 22 25 27 28
16 16 17 17 18 18 17 18 17 17 17 17 17 18 18 19 20 21 21 20 19 17 15 11 8 6 5 6 5 7 8 3 1 4 4 5 6 5 8 10 9 7 7 8 8 10 11 11 9 5 4 5 4 7 6 3 3 2 2 3 4 4 4 4 8 6 3 3 2 1 4 9 5 3 2 3 6 6 8 11 14 18 17 17 19 22 25 23
16 17 18 18 19 18 18 18 18 18 17 17 17 17 18 20 20 21 21 21 19 17 14 10 8 6 6 5 4 6 5 2 3 6 5 4 3 4 8 8 7 6 6 8 8 8 10 10 6 3 3 3 3 5 6 7 5 2 2 1 2 3 4 5 9 8 6 6 5 3 5 6 2 2 1 3 6 6 8 11 15 17 16 17 17 19 21 19
16 17 18 19 19 19 19 19 18 18 18 18 18 18 19 20 20 21 21 20 18 16 13 10 8 6 6 4 3 4 2 0 5 6 5 3 2 5 7 7 6 5 6 7 6 5 7 4 3 3 2 2 2 3 8 9 3 3 1 2 3 3 4 4 7 8 6 8 7 5 3 2 3 1 1 1 5 7 10 13 14 14 16 17 16 15 16 14
17 17 18 19 20 20 19 19 19 19 18 18 18 18 19 20 21 21 21 20 18 16 12 10 7 6 6 2 2 3 2 3 8 6 4 2 2 5 7 7 6 6 7 6 3 2 3 3 3 3 2 3 4 1 8 7 4 5 3 2 3 5 5 2 5 5 4 7 7 4 2 1 1 0 2 2 4 10 13 15 14 14 16 16 13 12 12 14
17 17 17 18 19 20 19 19 19 19 18 18 18 19 19 20 21 22 22 20 17 15 11 9 7 6 5 1 1 3 0 5 6 5 3 2 3 5 7 7 7 8 8 7 5 3 2 4 5 2 1 4 1 5 8 8 5 3 3 4 3 4 4 4 6 4 2 4 3 1 2 1 2 0 2 3 3 12 15 14 14 14 14 12 12 11 11 13
17 17 17 18 19 20 20 20 20 19 19 18 18 18 19 20 21 22 22 20 16 13 10 9 8 6 5 1 1 2 3 4 6 4 1 3 4 6 8 7 9 10 8 9 11 5 2 3 3 1 1 5 1 8 9 6 2 1 4 6 5 4 4 5 6 4 2 1 2 2 2 3 3 1 1 3 2 12 15 15 15 14 12 11 11 10 12 13
17 17 18 18 19 20 20 20 20 20 19 19 18 18 19 20 21 21 21 19 15 11 9 8 7 6 5 2 3 2 5 6 8 5 4 6 5 5 7 8 10 11 9 10 10 6 5 4 5 4 1 3 1 4 4 5 5 6 9 8 7 6 4 5 6 5 2 2 5 3 0 4 3 0 1 2 7 14 15 14 14 13 12 12 10 9 13 14
18 18 19 19 20 20 20 20 20 21 20 19 19 19 19 20 21 21 20 17 13 9 7 7 6 6 3 2 3 2 5 8 10 7 6 5 4 4 6 8 10 11 11 8 9 9 8 7 7 4 1 1 3 5 3 8 12 11 11 9 7 7 5 6 6 4 2 3 5 3 0 4 3 1 2 1 7 13 14 15 14 13 11 10 8 9 11 13
20 20 20 20 20 20 20 21 21 21 21 20 20 19 19 20 20 20 18 15 12 8 6 6 5 3 2 2 2 5 5 8 10 8 6 4 2 4 5 7 10 11 12 8 8 11 12 12 8 4 1 0 4 5 3 9 13 9 8 9 4 5 6 5 3 0 0 2 4 3 1 3 3 2 1 4 2 10 13 14 13 11 9 7 8 9 8 11
22 22 22 22 22 21 21 22 22 22 22 21 20 20 19 19 20 19 16 13 11 7 4 5 4 2 3 1 5 5 3 7 10 10 8 6 4 6 7 8 10 10 12 10 9 12 13 14 8 2 2 1 2 5 7 7 8 4 3 7 4 3 4 3 1 2 2 1 3 3 2 3 5 3 1 5 1 10 12 11 11 8 6 7 9 9 7 9
23 23 23 23 23 23 23 23 24 24 23 22 21 20 19 19 19 18 15 12 9 6 4 5 3 1 2 4 9 9 3 7 12 12 10 11 10 10 12 12 11 11 10 9 10 11 12 13 8 3 3 2 3 5 9 4 3 3 2 3 3 3 1 2 1 3 3 0 2 4 3 5 5 5 3 5 4 8 9 8 9 9 7 7 8 9 7 8
23 23 23 24 24 24 24 24 25 25 25 24 22 20 19 19 20 18 13 10 7 4 3 4 2 0 2 6 10 6 5 8 11 14 10 12 13 10 13 16 16 13 11 9 9 10 11 10 6 2 3 2 5 5 6 2 1 2 2 1 2 3 2 2 2 5 3 1 0 3 3 4 6 5 3 3 5 7 5 4 7 8 9 9 8 9 7 6
23 24 24 24 25 25 25 25 26 27 26 24 22 20 19 20 20 16 10 6 3 3 1 3 1 1 1 4 5 2 6 8 10 13 10 9 12 11 13 16 15 13 13 11 9 10 9 5 2 2 3 0 4 5 4 2 1 2 3 2 1 4 2 1 2 6 4 4 2 2 3 2 4 5 2 3 6 7 6 6 7 6 8 10 8 8 8 6
24 24 24 25 25 25 25 26 27 28 26 25 23 20 19 21 19 11 5 1 2 3 2 1 1 2 2 5 5 2 7 11 12 14 12 8 9 10 8 8 9 9 9 8 7 6 4 2 1 2 2 1 2 5 4 2 4 3 1 2 1 4 4 2 2 5 5 5 3 2 3 3 4 4 2 2 5 7 6 5 6 4 6 9 9 7 8 7
25 25 25 25 25 25 25 26 27 28 27 24 22 22 21 19 11 3 3 6 5 1 1 1 1 2 3 5 4 5 9 13 11 12 14 10 9 8 6 5 3 3 2 2 2 2 1 1 0 1 3 3 1 5 3 5 5 4 3 3 2 3 4 5 4 5 8 5 4 4 2 4 5 4 3 1 4 6 5 3 4 3 4 8 9 7 8 8
26 26 26 26 26 26 25 26 27 28 27 23 20 20 16 10 4 4 7 8 4 1 2 2 3 2 3 5 7 5 8 13 10 11 12 9 9 9 6 5 1 5 4 2 2 2 2 1 2 1 3 5 2 4 7 7 6 8 7 5 5 4 2 4 4 5 9 5 4 6 4 5 5 5 5 2 3 5 5 3 2 2 3 7 8 7 9 8
27 27 27 27 26 26 25 26 27 27 27 23 20 16 8 5 4 2 2 4 4 5 7 7 6 4 7 4 4 4 7 11 8 8 11 9 7 4 3 2 0 3 3 2 2 2 3 2 1 4 6 8 9 8 8 8 8 8 6 5 6 5 2 2 2 5 8 5 4 7 5 6 7 6 5 3 4 4 5 4 2 2 3 6 8 8 9 7
28 28 28 28 27 26 25 25 26 27 25 20 17 9 1 1 2 3 4 5 7 9 11 12 9 9 12 7 7 10 6 4 4 5 12 12 6 2 2 1 2 2 3 3 2 1 4 3 6 10 11 11 9 7 8 8 9 7 5 6 3 2 2 0 3 6 6 3 3 5 4 6 6 5 5 4 5 4 5 6 4 4 3 5 7 9 9 9
28 28 29 29 27 27 25 25 26 23 18 15 12 3 2 6 6 9 8 6 11 9 9 12 10 10 15 15 15 17 5 2 4 4 11 11 5 4 3 1 4 4 3 2 1 1 2 4 10 12 10 8 8 9 10 6 7 7 4 6 4 2 2 3 2 6 6 1 1 4 4 4 5 4 4 4 5 3 4 6 5 5 4 4 6 8 10 11
28 29 30 29 29 28 24 25 24 16 14 17 11 4 10 18 16 16 8 1 9 11 7 8 7 6 10 13 14 16 4 4 4 4 11 10 4 5 2 2 4 4 1 4 4 3 2 6 12 12 9 7 8 7 3 1 4 5 6 5 4 6 5 1 2 5 5 2 2 5 3 3 4 4 3 4 3 0 2 4 4 4 5 5 7 8 10 12
29 30 30 30 31 27 25 25 16 10 18 20 11 9 20 24 17 13 5 1 5 8 7 8 7 4 8 9 10 11 3 4 6 5 11 9 4 4 3 4 4 3 4 6 8 7 7 9 9 9 8 5 2 1 4 5 3 2 7 5 5 8 4 2 5 5 3 2 3 6 2 4 4 3 5 4 2 1 2 4 4 4 4 4 5 7 9 11
31 31 30 31 30 27 26 18 6 12 23 16 8 15 23 21 18 14 4 1 3 5 6 6 4 3 9 8 8 8 2 2 5 8 11 10 6 3 2 4 3 5 9 8 9 8 9 10 3 4 5 2 5 3 2 4 2 2 3 5 9 11 6 6 9 6 3 2 3 6 2 4 4 4 7 3 3 5 3 4 6 6 4 4 4 6 7 8
33 32 31 30 29 30 23 7 7 20 20 8 9 19 20 18 22 17 3 3 4 5 3 1 1 4 6 5 5 3 4 1 6 10 12 11 8 5 3 3 1 5 7 6 5 3 6 8 1 5 4 4 6 2 3 4 4 3 4 6 11 11 8 11 11 6 3 3 5 5 3 3 4 4 7 4 4 7 4 5 7 6 6 5 5 6 7 7
35 34 33 30 28 28 17 5 14 19 8 6 15 20 17 18 22 14 3 3 4 4 3 1 1 3 5 6 6 5 2 4 3 4 9 9 6 4 3 4 2 4 3 2 1 1 5 6 2 2 3 2 3 1 6 4 7 3 4 7 13 11 9 13 12 6 4 3 2 4 4 0 3 5 5 6 5 6 6 7 7 6 7 6 6 6 8 9
35 35 34 30 27 24 14 11 15 11 4 11 18 17 16 18 17 7 4 2 3 2 2 1 0 2 2 3 6 4 3 5 3 4 6 9 6 3 2 5 3 6 4 4 2 5 3 2 2 3 4 1 4 5 5 2 4 5 4 5 12 11 11 13 10 5 3 4 2 5 3 1 4 4 1 4 5 6 8 10 9 8 8 8 8 7 7 9
35 36 36 32 28 21 12 11 12 7 9 15 17 15 16 16 10 4 4 2 2 1 0 1 1 2 1 2 3 3 2 3 3 4 2 6 5 2 3 7 4 5 5 4 4 6 2 3 6 7 4 4 5 5 5 4 3 5 0 4 6 7 11 11 8 4 2 3 4 8 6 2 4 3 1 3 3 7 9 10 9 9 9 9 9 8 7 8
35 36 36 34 28 16 9 14 14 7 10 16 15 14 12 9 5 5 2 0 2 2 0 1 0 3 4 3 2 4 4 4 3 1 2 2 2 1 2 3 1 1 4 1 2 6 4 2 3 5 4 5 4 4 4 6 6 2 5 5 4 4 7 6 2 4 3 2 5 8 9 5 2 4 3 3 4 6 7 6 7 8 9 9 9 8 8 8
35 35 36 34 27 15 8 11 9 4 11 15 14 11 6 4 4 4 1 2 2 2 2 1 2 3 7 6 4 3 4 4 3 3 3 2 1 2 2 3 3 3 4 5 4 5 3 2 2 2 4 3 3 2 3 1 1 3 5 4 3 3 2 3 3 2 2 4 6 4 5 5 1 4 4 4 6 4 5 7 9 11 11 10 9 8 9 8
37 36 35 32 25 15 11 10 8 8 11 11 9 5 4 4 1 2 3 3 2 3 3 3 3 3 5 7 5 4 4 3 4 5 5 4 3 3 3 3 2 3 3 4 3 5 3 3 3 1 2 2 4 1 5 6 5 5 4 5 4 2 3 3 3 1 2 4 4 1 5 3 3 5 5 6 7 5 6 7 9 12 12 11 10 10 8 8
38 38 35 29 22 17 15 13 12 11 9 7 5 4 6 4 2 4 4 2 1 4 2 2 6 6 6 5 4 5 5 4 6 6 5 4 4 4 4 5 5 4 1 4 1 3 4 2 1 2 2 1 6 4 1 3 4 4 2 3 4 2 2 1 3 1 1 4 3 3 4 1 3 3 5 7 6 5 6 8 9 10 11 12 11 10 9 9
40 37 34 28 20 16 15 11 10 8 6 4 4 5 4 2 4 4 3 3 3 4 4 3 7 6 5 4 4 6 4 4 6 6 5 4 3 3 5 5 5 5 2 1 1 1 3 3 2 4 2 2 4 4 6 4 3 2 2 5 4 3 4 2 2 1 2 3 3 5 2 2 1 2 4 5 6 4 3 4 6 7 9 9 9 9 9 9
39 37 33 24 16 12 10 10 8 5 1 3 5 4 2 4 4 2 2 4 2 5 7 3 5 3 2 3 3 5 4 3 5 5 4 4 4 4 4 4 6 5 3 1 0 0 3 1 6 3 2 4 4 3 5 7 3 1 2 5 2 3 5 2 2 4 2 1 1 2 0 2 2 2 3 3 4 4 4 3 2 4 4 6 7 8 8 7
40 37 25 13 12 7 3 6 8 8 4 5 5 2 4 4 3 2 2 4 2 4 9 7 1 1 2 3 3 1 3 3 4 2 2 3 3 3 2 2 4 6 5 3 1 1 3 1 4 3 2 4 4 3 3 5 3 0 3 2 3 4 6 3 1 2 3 3 1 1 1 3 2 1 3 4 5 6 5 4 3 4 3 5 6 7 7 6
39 31 16 11 11 5 1 5 13 13 4 6 4 4 4 3 3 1 3 7 6 3 5 6 2 1 2 1 3 3 3 1 2 2 2 2 1 2 1 2 1 4 5 4 1 1 2 1 5 2 0 3 2 3 4 2 4 4 2 4 2 2 4 4 1 3 4 2 2 1 2 2 1 1 4 6 7 6 6 4 1 1 2 5 5 5 6 5
31 20 12 10 4 6 5 9 18 12 5 5 2 4 3 3 3 3 5 7 8 6 4 4 4 3 2 0 4 5 4 2 3 4 1 0 0 2 1 2 2 1 4 6 2 1 3 1 6 4 3 2 2 6 5 6 4 5 4 4 3 3 1 2 2 1 2 0 2 2 0 1 2 1 4 6 5 5 6 5 3 2 1 4 5 5 5 5
18 9 7 5 5 10 10 16 16 7 5 3 3 3 3 3 4 5 7 6 6 5 3 4 3 0 1 2 4 5 2 3 5 4 1 1 2 1 1 2 1 4 4 7 4 1 3 3 3 6 5 2 3 4 2 2 5 4 3 3 3 3 3 1 2 2 2 1 1 1 2 1 3 3 3 4 5 3 4 5 4 4 3 2 2 3 4 5
8 3 4 3 9 15 16 16 9 5 3 3 4 3 3 4 4 7 8 6 4 3 5 4 0 2 1 1 3 4 1 2 4 3 2 2 2 1 1 2 3 3 6 9 5 1 3 3 1 6 6 4 3 1 5 5 2 3 4 3 2 2 2 2 1 1 3 3 2 1 2 4 4 3 3 4 4 1 1 2 4 4 5 5 5 4 4 3
4 2 2 4 11 18 17 9 3 3 3 2 2 3 5 4 5 9 10 8 5 5 7 6 2 1 2 1 2 2 2 2 2 2 1 2 3 1 3 2 3 5 5 7 5 2 2 2 0 2 4 3 4 3 6 7 5 5 4 3 3 2 2 2 1 2 1 3 3 3 1 5 4 2 4 4 2 1 2 2 1 4 4 5 6 5 6 5
2 1 4 2 5 8 7 4 1 2 2 3 3 4 5 4 6 9 9 8 6 6 6 4 1 2 2 2 2 1 2 2 1 2 0 2 4 4 3 2 5 6 5 3 1 1 3 3 3 1 1 2 6 2 6 8 5 5 3 3 3 3 4 4 2 2 1 1 1 3 1 5 4 3 4 4 2 2 3 4 1 2 3 3 5 5 5 5
2 4 9 4 4 6 1 2 3 2 2 4 4 5 5 5 6 7 8 8 6 5 3 2 1 2 2 2 1 1 2 2 1 3 1 1 3 3 5 6 7 6 5 2 1 1 1 3 3 2 4 4 6 5 4 5 5 5 2 3 4 3 4 5 4 3 3 2 1 2 0 4 5 4 3 3 3 3 3 4 3 2 3 3 4 5 3 3
2 4 6 7 4 5 2 1 2 3 4 4 5 6 6 6 7 8 8 8 6 3 2 2 2 2 2 2 1 2 2 1 0 3 2 1 1 2 2 7 7 4 3 2 2 2 1 1 3 3 4 5 5 6 5 5 3 2 1 2 4 6 6 4 2 3 2 3 4 3 2 5 4 2 1 3 5 4 3 2 3 1 2 3 3 3 1 1
4 2 4 9 8 1 5 3 2 3 4 4 6 7 6 6 7 8 9 9 8 5 2 3 3 2 2 2 2 2 2 2 2 0 2 2 1 1 3 7 7 4 3 5 6 5 3 2 4 4 3 1 1 1 2 2 2 1 1 3 5 8 9 5 2 3 1 3 4 4 4 5 5 3 2 4 5 5 5 3 3 3 3 4 3 3 3 0
3 1 3 6 6 2 1 2 3 3 4 5 6 7 6 6 5 6 7 7 8 8 4 3 3 2 2 2 1 2 2 2 1 0 1 3 1 1 4 6 6 6 7 9 7 5 3 2 3 6 6 5 6 6 5 2 1 3 3 5 6 8 8 6 4 3 3 3 3 4 5 3 6 6 4 4 5 4 5 3 3 2 1 3 3 2 4 3
1 2 3 3 3 3 4 4 5 5 5 5 4 6 9 8 6 5 5 5 7 8 4 2 3 2 1 2 1 2 4 3 2 1 1 3 3 4 6 5 5 9 11 9 5 5 4 1 1 6 7 7 8 7 6 3 3 5 5 6 8 8 8 7 5 5 5 6 3 6 6 4 5 7 6 6 5 4 5 2 2 2 3 3 3 3 5 5
0 1 3 3 2 2 3 5 7 8 9 7 4 6 9 8 6 5 4 5 8 6 3 1 4 5 4 3 1 1 3 4 3 3 1 0 1 3 2 3 1 8 9 5 2 5 5 1 4 4 3 4 5 5 4 2 3 6 5 6 9 9 10 10 7 6 9 7 5 6 8 7 6 6 5 5 4 4 5 4 3 2 3 2 1 3 5 5
2 2 2 3 2 2 3 7 8 9 9 7 4 5 6 6 6 5 4 5 7 5 3 2 4 5 4 3 4 1 2 2 3 3 2 2 1 3 2 2 2 2 4 4 1 3 4 2 4 3 2 5 5 4 4 5 4 6 6 5 9 11 12 10 7 8 10 6 4 6 9 7 4 3 3 4 4 4 3 3 1 2 3 2 1 1 3 5
2 2 2 2 2 3 4 5 6 6 7 5 3 5 6 5 6 8 7 5 5 5 1 1 5 8 8 2 5 1 3 3 2 4 2 2 1 2 3 3 3 1 3 3 1 1 3 2 3 3 1 5 6 5 6 6 4 5 8 5 7 10 8 5 4 7 6 1 1 6 6 3 3 2 3 3 3 2 1 4 4 3 3 2 2 1 2 4
4 5 4 1 2 3 3 3 4 4 5 4 3 6 7 7 6 8 8 6 5 4 2 3 5 7 8 6 7 5 7 1 3 3 4 2 2 4 4 4 6 4 3 4 2 2 3 1 0 5 4 4 4 4 5 5 5 6 7 6 1 6 4 0 2 5 5 4 5 6 4 3 4 3 3 3 4 3 4 6 4 2 1 1 2 2 3 4
7 6 4 1 1 3 3 3 4 3 3 3 6 8 9 9 8 6 5 5 7 7 2 4 5 5 5 8 8 7 9 1 4 2 4 2 1 2 3 5 9 8 5 4 3 2 4 3 2 4 3 3 4 2 2 3 6 4 3 2 1 4 5 5 5 4 2 5 7 5 4 5 5 5 3 3 5 5 6 5 2 2 2 2 1 2 3 4
Wind_Direction
4 2 360 357 357 356 353 350 348 345 344 342 339 339 337 337 336 336 336 336 338 339 341 342 346 354 355 354 352 351 351 354 208 267 251 217 193 219 276 279 264 249 249 255 252 258 271 261 250 248 252 241 216 187 174 177 139 84 56 107 126 135 126 155 137 96 72 23 358 338 322 183 244 261 250 66 110 135 126 128 133 117 119 116 118 129 133 134
3 3 1 358 357 356 353 350 348 346 343 341 340 339 339 339 339 340 339 338 341 343 345 345 353 1 357 358 357 356 354 351 273 270 237 206 207 237 256 261 255 249 241 240 246 231 224 246 241 238 212 209 234 173 168 181 125 109 96 96 157 174 140 150 123 92 105 82 40 287 296 253 237 268 353 88 129 137 109 127 129 119 123 115 120 129 132 134
2 3 1 360 358 356 354 349 347 345 343 341 339 340 341 341 341 342 341 342 346 349 350 350 359 7 3 1 3 1 349 345 306 276 239 213 228 238 238 245 244 242 235 236 247 226 218 244 262 261 196 211 228 182 175 181 173 158 119 104 226 179 129 128 107 91 120 81 292 209 270 263 261 327 9 112 128 121 123 141 135 130 138 131 130 135 136 139
1 2 0 360 359 357 354 349 347 344 343 341 340 342 342 342 342 343 344 346 350 354 354 357 5 13 12 1 6 1 344 357 294 261 230 218 226 228 231 236 232 226 231 239 243 235 247 269 278 264 217 228 194 169 174 176 190 160 121 162 206 161 126 127 118 130 163 148 215 265 274 258 265 351 357 116 114 122 142 150 144 141 145 142 140 142 145 146
358 359 358 358 358 357 354 350 348 345 343 341 341 342 342 342 342 344 346 347 351 356 358 4 11 18 15 1 3 350 349 39 279 247 227 232 215 215 224 223 220 221 226 235 239 253 274 277 278 275 247 252 152 151 173 178 173 91 19 86 151 137 127 136 134 154 160 142 179 237 249 251 319 352 321 121 130 146 152 146 143 142 144 147 146 146 148 149
354 355 355 355 356 355 353 351 349 346 344 342 341 341 342 342 343 345 346 347 350 356 2 7 15 23 7 1 7 346 19 103 265 245 233 229 192 208 208 207 209 211 219 229 246 280 294 289 310 309 282 300 282 202 171 170 154 113 7 30 56 65 106 137 137 154 158 145 179 219 223 278 355 308 285 161 164 162 145 138 139 138 142 146 147 149 149 150
351 353 352 352 353 351 350 350 350 348 344 342 340 340 341 341 343 345 346 347 349 355 4 4 12 21 0 13 33 15 103 252 253 234 241 201 173 199 187 198 197 190 210 223 249 271 302 300 287 266 264 303 298 203 141 127 90 115 137 119 65 60 93 118 129 147 162 157 189 205 152 334 356 245 330 349 149 149 138 134 136 136 141 145 151 161 150 146
349 351 349 350 349 347 348 349 349 347 344 341 338 339 341 340 342 344 345 347 348 352 1 2 6 11 1 20 36 10 285 255 227 198 235 177 157 186 178 190 185 185 209 234 243 220 307 284 259 248 341 303 264 127 122 94 64 89 121 137 99 77 97 90 112 119 118 148 193 163 94 293 226 259 321 337 118 138 136 134 135 137 147 152 164 168 146 144
350 349 348 349 347 345 345 346 346 345 343 339 337 338 339 339 340 344 345 344 348 352 356 3 357 3 8 335 91 5 286 232 177 154 158 143 133 167 178 182 182 189 216 253 250 236 265 264 275 318 358 300 193 141 141 109 82 144 109 122 116 103 87 75 94 74 54 88 27 94 58 309 252 269 296 282 172 140 136 138 140 145 156 166 176 166 143 146
351 348 347 348 346 344 343 344 343 342 341 337 336 336 336 338 339 343 343 340 347 352 354 3 354 1 11 352 72 11 271 195 164 141 118 128 122 151 177 182 186 198 220 255 255 239 227 242 300 300 242 301 351 122 148 132 122 119 108 102 98 96 72 60 62 22 357 36 34 86 82 302 276 197 79 157 157 144 140 143 145 152 165 176 180 158 143 151
356 351 348 348 345 343 342 342 340 339 338 335 335 333 333 337 338 340 340 336 339 347 351 356 352 353 4 77 90 271 235 189 175 147 120 129 139 174 186 192 201 211 225 250 267 260 259 281 319 330 279 340 55 34 35 119 116 124 116 87 71 86 72 60 62 359 336 55 22 51 110 309 311 137 87 74 160 149 144 150 153 160 172 179 164 137 143 154
0 356 353 350 346 343 342 340 338 337 335 333 332 329 330 335 335 334 334 331 330 335 344 348 353 352 5 94 200 237 217 207 196 157 142 156 176 215 212 216 221 226 229 236 281 293 301 312 338 16 295 209 93 63 79 121 120 141 122 91 83 87 63 45 77 276 84 87 338 3 84 314 317 177 96 332 214 152 148 155 159 164 166 159 134 128 145 150
0 359 356 353 349 346 343 339 337 334 332 331 329 327 328 331 331 328 328 328 323 325 343 349 346 351 16 319 258 279 268 217 194 168 173 193 223 245 242 239 233 237 240 245 285 303 306 307 327 340 268 51 97 125 146 142 122 140 100 105 135 72 48 12 100 142 90 114 321 26 126 252 282 268 338 354 57 148 153 158 155 152 141 131 131 136 146 144
358 357 355 353 351 348 345 341 337 333 331 329 327 325 324 327 326 321 322 323 317 320 338 348 335 22 57 267 282 301 271 175 177 186 195 206 223 242 243 239 231 231 239 249 270 285 294 302 320 310 252 129 117 128 141 153 108 131 84 97 114 73 99 270 210 152 102 283 332 67 140 232 268 296 351 14 49 133 152 161 150 139 134 136 138 142 145 147
355 354 353 351 350 348 346 342 337 333 330 328 326 323 321 323 319 315 318 317 309 299 321 347 316 128 21 287 295 298 193 170 186 198 200 213 223 241 248 238 230 224 225 236 257 274 288 306 331 317 274 133 119 123 145 154 354 148 109 17 36 86 160 271 229 190 149 164 296 94 155 242 267 285 327 25 52 88 109 128 134 139 146 144 143 145 149 155
355 353 351 349 347 347 345 342 339 334 330 328 325 321 322 320 313 311 312 307 287 248 2 34 30 65 19 289 309 312 192 202 209 202 200 217 220 235 249 237 227 220 221 229 246 264 282 317 331 228 272 335 119 124 134 131 269 258 125 168 149 106 150 269 227 215 170 136 169 172 163 220 267 263 299 32 73 80 76 100 123 157 163 145 148 152 147 156
355 352 349 347 345 343 343 342 339 334 331 328 325 322 322 317 309 305 300 245 179 211 171 74 18 30 278 282 306 283 211 214 216 205 207 223 223 233 246 228 219 212 215 230 241 258 293 352 252 252 304 321 119 105 104 183 231 266 103 137 176 137 151 155 202 210 165 142 175 190 164 193 251 250 243 37 83 93 86 105 121 159 177 149 151 157 147 148
354 351 348 346 343 341 341 340 338 334 330 327 327 325 321 318 316 308 149 136 133 159 158 292 7 51 267 264 255 234 216 214 206 189 203 229 236 240 245 229 211 156 147 297 262 238 308 334 10 345 333 316 53 105 146 217 201 201 184 134 150 167 166 172 182 177 161 150 158 165 191 211 242 247 213 155 96 107 107 117 113 123 174 161 155 155 151 146
353 351 348 345 342 340 339 339 336 333 330 326 329 328 323 333 18 104 127 128 116 340 289 244 164 154 267 240 233 234 191 182 170 175 203 225 226 239 253 246 190 117 113 16 292 226 168 11 26 37 291 282 249 174 196 218 196 188 183 147 153 168 190 185 177 162 153 134 155 178 194 213 228 230 216 207 112 114 118 121 108 101 159 169 159 154 159 152
351 350 347 345 342 339 339 338 334 332 330 327 332 339 341 360 21 47 127 152 203 229 251 243 188 218 277 272 221 196 154 160 165 191 214 214 197 227 288 260 72 124 152 160 230 259 128 109 272 226 236 242 242 225 212 228 220 190 154 143 160 156 184 187 149 160 146 128 194 191 186 207 214 218 223 196 130 132 138 141 176 149 148 171 164 158 157 132
349 348 346 345 341 338 338 336 333 330 328 327 337 354 32 335 6 334 310 280 252 222 232 241 214 220 255 264 179 165 147 183 213 217 218 217 175 139 289 207 116 226 226 176 193 311 108 146 231 226 227 232 244 249 247 245 214 181 140 147 144 118 208 177 110 160 152 126 203 180 184 218 221 226 230 186 163 189 174 161 186 179 154 174 169 157 148 121
350 348 345 344 340 336 336 335 332 329 332 340 348 6 254 298 308 308 310 305 293 267 240 244 232 227 251 255 198 171 136 195 248 274 216 209 153 152 248 150 150 225 239 112 87 320 138 223 241 235 235 244 261 260 253 240 172 152 137 140 141 162 158 25 53 163 163 149 200 168 186 245 264 253 239 203 185 203 194 178 180 171 158 181 179 159 148 144
351 347 345 343 339 334 334 334 330 331 349 349 334 293 319 327 321 311 305 275 294 285 261 242 231 221 242 250 198 170 149 177 202 264 203 184 152 174 193 182 206 244 221 139 165 185 186 239 242 239 240 234 243 245 219 85 93 130 142 138 167 177 151 54 221 177 180 197 143 146 170 288 294 295 278 234 196 10 235 208 203 181 162 181 190 169 158 161
350 347 346 342 337 334 333 333 328 338 351 340 312 310 338 344 339 323 311 202 284 277 262 237 227 212 211 219 180 165 188 179 164 218 199 171 152 174 174 194 214 266 251 198 179 185 216 238 232 226 233 212 191 343 63 63 9 136 149 147 167 173 166 161 162 150 176 224 126 117 72 304 262 244 258 248 197 251 245 203 230 227 175 172 193 177 169 168
349 347 345 343 339 333 331 332 329 342 341 330 310 331 342 346 341 333 334 26 301 278 269 242 221 197 188 179 170 171 170 176 178 192 191 181 169 159 207 207 188 235 241 212 184 190 229 249 237 174 209 106 75 12 43 104 28 341 181 176 164 166 164 136 132 117 117 250 213 139 93 291 261 230 238 242 206 222 206 183 215 231 198 172 188 183 179 178
349 346 344 344 339 333 335 339 334 337 334 322 333 340 343 348 345 343 26 65 314 267 253 245 148 178 180 162 165 133 61 269 209 181 181 195 188 158 216 257 231 236 238 204 180 181 227 243 254 122 143 79 67 1 261 145 95 322 252 167 155 160 150 139 135 123 144 221 223 165 133 278 293 269 233 198 205 225 215 202 211 220 211 183 184 187 181 185
348 346 344 342 340 339 339 311 322 332 325 322 342 345 347 350 347 347 49 50 309 250 208 304 26 174 188 175 154 100 64 231 216 192 189 190 184 144 195 266 324 261 270 81 77 262 216 236 291 99 102 89 100 251 255 149 111 258 270 134 150 162 145 144 146 158 191 171 171 177 139 69 292 278 233 167 182 233 234 229 220 211 214 196 187 189 181 184
345 345 343 339 338 337 324 300 318 327 307 330 344 347 344 344 346 0 83 60 284 247 192 226 117 173 199 159 142 130 213 192 150 262 212 172 175 121 176 242 241 261 276 99 155 257 210 215 242 138 94 155 198 218 237 117 116 246 276 126 155 165 149 150 161 187 186 109 141 215 160 111 266 280 331 138 174 230 233 228 221 207 210 202 191 189 184 184
341 342 340 336 334 331 319 303 303 303 325 341 350 345 335 336 353 59 82 70 221 248 177 117 106 193 217 79 151 182 193 164 178 245 185 159 202 140 178 228 221 269 275 144 184 254 219 179 180 143 128 207 222 229 205 153 191 233 150 99 128 145 151 156 169 172 97 97 202 218 180 170 272 278 84 122 192 231 227 226 221 209 207 204 196 190 186 183
339 339 337 333 330 326 316 301 288 294 345 348 346 337 331 338 34 74 37 261 217 260 118 91 265 169 144 131 225 209 167 188 221 204 109 162 248 68 197 237 100 345 310 8 234 252 243 224 183 143 166 194 195 234 201 165 191 169 73 62 55 94 144 151 166 132 108 257 241 216 187 165 288 276 202 169 210 217 206 211 214 209 208 206 200 190 185 183
336 337 334 330 324 312 296 293 286 317 344 340 337 336 352 16 65 92 214 244 256 256 160 197 246 151 151 173 217 216 169 196 204 148 176 191 49 349 309 339 12 35 358 338 305 280 265 247 259 200 185 162 127 276 304 31 154 85 69 63 38 359 64 55 352 64 128 258 277 247 178 139 183 266 261 243 241 219 188 197 200 199 203 204 199 191 186 182
335 334 331 326 317 294 262 264 280 305 321 333 343 360 56 51 20 177 237 311 334 213 194 200 209 187 186 193 211 213 180 192 195 171 184 184 169 213 202 192 181 57 353 283 283 312 293 208 228 239 220 152 115 63 329 353 19 51 63 68 65 354 359 11 313 244 181 246 276 40 109 109 232 242 275 276 254 222 198 205 203 196 194 196 196 190 184 182
333 332 329 324 311 286 270 274 281 289 309 334 0 41 79 85 238 220 233 300 253 220 238 176 192 194 184 191 227 217 191 205 208 188 183 175 179 224 238 215 167 106 262 238 236 341 337 328 61 97 275 210 122 121 324 344 19 52 89 103 101 92 62 322 287 315 281 258 295 23 81 65 285 266 297 302 280 243 215 210 203 194 190 191 194 187 180 181
332 331 329 322 305 282 271 271 270 273 308 340 40 65 84 144 237 233 231 257 255 268 280 195 192 197 185 202 215 187 182 232 211 181 175 157 157 237 260 236 167 131 184 246 41 68 45 339 218 172 235 208 137 157 162 138 69 59 125 123 123 130 138 199 220 159 239 252 311 352 36 164 211 264 294 308 304 306 295 241 198 187 189 186 188 187 181 180
333 331 329 319 303 286 261 250 250 236 226 46 63 79 153 208 243 231 230 262 301 311 297 245 170 193 263 274 237 170 152 221 207 172 181 174 170 210 234 215 176 158 148 93 341 26 59 274 232 227 226 159 165 217 152 113 69 324 80 88 99 165 143 147 186 181 187 157 304 331 250 200 196 239 306 335 329 342 0 358 111 148 166 163 175 190 186 181
334 333 332 312 295 298 257 225 206 182 156 82 76 147 206 219 234 186 248 285 335 334 316 322 68 173 287 300 291 247 128 183 195 154 207 201 190 216 208 171 165 158 150 124 138 344 43 281 256 302 315 169 184 227 131 117 142 316 54 105 213 178 130 115 254 301 53 93 244 214 170 303 334 335 337 10 2 353 3 15 94 124 130 153 179 194 185 173
335 334 326 295 285 269 210 176 165 162 126 85 122 215 227 229 239 240 295 305 312 322 326 321 307 194 230 287 296 251 163 175 186 160 247 261 273 273 153 119 148 164 158 130 129 206 119 287 280 306 5 238 211 90 61 67 134 116 121 197 208 61 77 96 117 350 36 98 270 259 173 264 350 312 330 11 12 346 343 350 1 125 151 171 188 200 183 147
334 330 311 300 271 183 187 156 150 145 86 81 179 248 235 229 274 309 308 308 311 322 341 298 252 195 173 26 303 256 188 187 198 181 242 331 244 290 106 109 351 8 134 111 83 226 112 40 296 349 40 287 354 68 46 355 32 108 155 171 109 78 15 38 92 68 47 62 294 342 174 228 173 241 324 350 348 334 341 354 3 345 245 196 195 207 193 137
338 334 316 328 129 153 163 151 142 108 64 112 226 253 242 254 277 290 292 300 304 307 299 248 221 295 55 59 318 290 197 181 194 177 131 146 198 261 124 140 3 6 70 95 96 264 88 98 275 323 354 345 13 52 111 341 9 48 67 59 75 122 156 117 100 143 136 155 269 328 350 282 225 238 285 307 314 331 346 351 353 346 339 322 262 236 225 168
352 348 317 353 131 147 148 141 120 61 87 175 214 238 284 293 283 279 281 292 300 283 264 247 215 5 337 9 321 294 264 197 187 176 171 145 131 1 334 159 129 80 71 79 82 53 60 77 261 308 340 20 9 291 175 159 101 70 56 47 60 74 104 115 61 85 124 133 177 200 300 270 245 223 225 272 304 308 305 336 328 332 353 354 347 332 301 241
346 16 329 54 123 144 139 122 70 88 143 252 236 241 287 290 281 286 286 285 277 251 250 254 259 205 212 286 305 275 289 285 188 166 166 136 124 85 331 352 119 125 85 66 59 58 86 91 68 329 1 6 295 246 151 144 144 137 134 151 153 121 107 104 19 328 96 135 163 156 222 266 254 205 214 229 241 228 169 138 313 324 343 344 341 336 319 304
10 7 279 8 127 161 128 96 264 169 164 254 230 240 280 277 270 283 290 288 277 259 254 249 229 205 202 210 220 253 316 287 193 113 69 170 146 153 204 157 115 112 95 71 66 160 141 101 73 354 242 254 287 314 117 132 131 115 122 145 136 119 114 121 176 244 162 120 152 127 163 266 257 212 220 232 222 209 162 135 131 306 316 327 325 317 316 312
43 301 281 294 213 219 55 39 282 286 230 244 246 250 259 264 270 279 286 285 279 276 273 249 226 243 230 182 154 1 332 294 139 107 122 147 128 177 197 151 108 90 86 72 305 305 73 74 66 325 303 307 315 340 64 92 87 83 91 135 129 131 136 143 169 170 136 157 149 87 240 271 268 234 231 274 270 244 189 142 143 224 264 276 282 291 306 319
315 275 279 320 297 215 198 247 253 264 264 269 276 265 255 255 262 266 272 276 277 282 291 283 275 249 243 232 199 210 229 269 49 114 135 144 159 230 169 108 100 92 106 156 172 107 72 72 82 49 357 353 349 351 356 356 32 97 182 176 137 119 112 113 120 88 85 200 156 117 236 260 267 255 327 314 290 283 271 169 143 172 288 291 275 282 298 29
319 253 251 319 333 204 189 208 208 258 290 309 295 282 277 269 260 257 262 267 262 248 239 267 274 264 250 257 265 233 199 206 250 227 121 111 38 337 85 101 108 105 125 164 150 114 126 152 112 107 120 145 191 252 270 289 311 330 218 188 146 131 130 130 110 91 105 215 150 139 217 260 289 295 327 301 280 290 305 334 46 49 354 326 319 308 292 186
6 3 278 320 343 7 250 316 14 343 319 327 311 294 281 273 276 273 268 272 265 247 215 205 248 274 265 239 269 291 270 215 188 335 109 139 153 226 154 133 120 121 147 162 145 96 92 145 139 142 159 178 192 218 231 206 265 275 238 202 172 153 142 119 102 137 175 175 178 209 204 229 292 283 275 273 263 276 297 331 38 67 298 299 295 282 279 255
81 10 351 347 333 347 358 356 8 353 320 319 314 289 282 280 291 303 294 293 283 261 233 204 239 235 244 252 245 263 275 270 206 189 179 170 185 186 158 126 125 146 150 151 136 99 90 326 229 160 176 199 196 216 243 233 234 262 255 211 186 164 142 130 152 191 153 133 230 247 192 181 257 257 244 249 248 269 281 257 206 207 211 242 275 290 295 298
299 304 13 23 322 338 359 327 326 324 312 313 305 282 286 281 280 295 293 296 298 274 240 288 256 218 209 223 238 283 286 288 264 224 184 117 135 144 102 32 135 166 144 116 93 103 108 224 237 183 216 249 220 224 253 266 265 289 290 211 183 168 166 171 186 184 148 149 226 221 174 185 238 247 229 225 214 219 241 230 207 230 239 233 277 303 310 311
340 307 350 17 338 281 289 294 304 312 310 315 307 284 290 291 292 303 292 299 315 293 220 241 277 271 257 201 154 187 244 224 264 255 176 157 143 135 114 11 293 220 111 101 117 111 112 212 230 187 234 293 290 289 325 350 327 314 310 234 183 174 183 188 184 173 166 179 207 173 169 197 252 261 209 192 192 198 232 267 218 215 249 228 177 264 305 301
1 311 334 356 303 272 275 293 311 317 310 313 296 276 292 319 335 335 319 296 306 311 312 339 333 341 331 307 127 126 256 188 221 269 212 150 153 162 164 180 214 272 84 122 205 83 103 216 239 137 85 307 309 331 344 346 352 346 327 288 190 175 192 206 164 159 171 207 109 129 152 221 289 271 193 181 194 194 255 270 244 219 227 173 141 218 276 283
327 307 330 342 277 292 297 303 325 324 303 311 323 310 317 330 339 337 321 292 287 314 26 47 3 2 351 3 54 7 315 63 96 273 246 208 212 203 196 174 170 172 143 150 178 102 111 173 329 77 65 296 301 352 342 337 19 21 347 334 128 148 162 174 93 133 158 148 114 117 146 224 233 206 184 181 192 206 236 246 251 271 280 106 128 227 270 276
346 326 338 36 242 304 324 317 321 314 288 318 337 328 320 317 326 345 339 319 328 334 17 86 51 27 10 18 27 335 301 259 124 213 233 217 179 201 215 180 164 163 160 150 150 142 129 126 116 95 94 269 284 20 29 18 26 358 291 275 124 112 97 68 49 43 107 135 134 155 197 207 191 172 171 202 212 228 245 250 274 315 321 329 244 230 260 279
Height
808 807 806 804 803 802 801 800 799 798 797 796 795 794 793 792 791 790 788 787 786 784 783 782 781 781 780 779 778 777 776 775 775 775 774 771 769 770 770 770 771 771 772 771 772 773 773 774 773 773 778 780 779 780 780 780 780 787 799 809 815 817 815 812 812 811 809 811 809 806 805 805 803 795 786 783 788 791 793 794 791 791 791 792 795 798 802 805
808 807 806 804 803 801 800 799 798 797 796 795 794 793 792 791 790 789 787 786 785 784 782 781 781 780 779 779 778 777 776 775 775 774 771 768 768 769 769 769 769 770 770 770 771 771 774 774 773 775 779 782 779 778 782 781 781 792 802 808 811 810 807 802 804 806 805 809 811 809 809 808 801 794 786 791 799 794 798 800 795 798 797 796 799 801 804 806
808 807 805 804 803 801 800 799 798 797 795 794 793 792 791 790 789 788 787 785 784 783 782 780 780 779 779 779 777 777 776 774 775 772 767 767 768 767 767 768 768 769 769 769 770 770 771 771 772 776 780 783 780 778 783 783 784 791 797 807 808 800 800 800 801 805 803 805 810 807 805 806 798 791 789 795 800 797 801 802 799 803 801 800 801 802 805 806
808 807 805 804 803 801 800 798 797 796 795 794 792 791 791 789 788 787 786 784 783 783 781 780 780 779 779 778 777 777 774 777 776 768 766 766 766 766 766 767 767 768 768 768 769 768 769 769 771 774 779 782 777 778 785 784 786 789 792 802 800 794 799 801 801 803 800 801 806 803 802 804 795 791 793 795 802 804 801 797 796 799 799 799 800 802 804 806
808 806 805 804 802 801 799 798 797 795 794 793 792 791 790 789 788 786 785 784 783 782 781 780 780 779 779 777 778 776 776 786 778 764 766 765 765 766 765 766 767 767 767 768 768 768 769 769 770 773 777 779 777 781 785 780 780 789 793 794 792 792 798 800 798 799 797 799 804 804 804 800 792 792 794 794 803 804 796 792 791 791 793 795 797 799 802 804
808 806 804 803 802 801 799 798 796 795 794 792 791 790 789 789 787 786 785 783 783 782 781 780 779 779 778 777 778 775 780 789 773 762 766 764 764 765 764 766 766 767 767 767 767 767 769 769 773 777 778 778 778 780 780 775 776 790 797 793 792 793 797 798 796 797 797 800 804 802 800 795 795 797 793 793 797 793 787 786 788 789 790 792 795 797 800 803
807 806 804 803 801 800 798 797 796 794 793 792 791 789 789 788 786 785 784 783 782 782 781 780 779 779 778 777 777 776 780 779 765 763 766 762 765 764 764 765 765 767 766 766 767 768 770 772 776 777 779 781 779 777 777 776 776 788 797 795 795 794 795 796 795 796 796 798 799 795 796 796 799 799 794 793 791 786 784 783 786 788 790 792 795 796 799 802
807 806 804 802 801 799 798 797 795 794 792 791 790 789 788 787 786 785 783 783 782 781 781 780 780 779 778 777 777 779 779 771 762 764 764 762 764 763 764 765 765 767 765 766 766 767 771 773 774 773 781 782 776 778 779 780 785 789 795 796 796 795 795 795 795 797 796 796 795 794 798 799 797 797 796 793 788 785 784 784 786 789 791 793 795 796 799 801
807 805 803 802 801 799 797 796 794 793 792 790 790 788 788 786 785 784 783 782 781 781 780 780 780 778 779 777 777 782 776 764 762 763 762 763 763 763 764 764 765 766 765 766 764 767 772 772 770 770 779 778 772 778 777 783 793 790 792 796 796 797 796 796 797 798 797 796 796 799 801 799 794 795 797 791 787 785 783 786 787 790 794 794 795 796 798 801
806 804 803 802 800 799 797 795 794 792 791 790 789 788 787 786 785 784 782 781 781 781 779 780 779 778 779 776 779 785 770 760 763 762 762 763 762 763 764 764 765 765 765 764 763 766 768 768 767 764 770 773 773 778 776 781 787 786 791 795 796 798 797 798 801 800 798 797 797 802 805 800 793 797 801 792 785 784 786 789 789 791 795 794 794 795 798 801
806 804 803 801 800 798 796 795 793 791 790 789 788 787 786 785 784 783 782 781 780 780 779 779 778 778 778 776 782 782 765 760 763 761 762 762 762 763 762 763 764 764 764 763 763 764 763 764 762 762 770 773 775 781 779 777 780 786 789 795 799 799 799 800 803 802 799 800 800 800 804 800 796 800 802 793 786 785 788 792 791 793 795 793 794 795 797 799
806 804 802 801 799 797 796 794 792 790 789 788 787 786 785 785 784 783 782 780 779 779 779 778 779 778 777 778 779 771 761 761 762 761 762 761 761 762 761 763 762 763 763 762 763 761 761 761 759 768 772 770 779 787 785 777 779 786 786 798 805 799 803 804 803 802 799 801 799 800 809 808 803 802 798 792 787 786 789 792 792 794 794 794 795 796 798 798
805 804 802 801 799 797 795 793 791 790 788 787 786 784 784 783 782 782 781 780 779 778 778 778 778 777 778 778 769 762 761 761 761 761 761 760 761 761 760 762 761 762 762 761 762 759 760 760 760 767 766 769 780 780 780 778 781 788 787 798 806 805 810 806 802 802 800 802 796 803 822 818 805 800 795 792 788 788 793 794 794 794 795 796 796 797 798 797
805 804 802 800 798 796 794 792 790 788 786 785 784 784 783 782 781 780 779 779 778 778 778 778 778 777 779 775 762 760 761 760 761 761 760 760 760 760 760 760 761 761 761 761 761 759 760 758 759 763 762 768 774 771 780 786 786 792 794 797 803 811 816 806 802 804 804 803 796 806 826 820 805 798 794 791 789 790 795 795 794 795 796 797 797 797 799 797
805 803 801 799 797 795 793 791 789 787 785 783 782 782 781 780 779 777 778 778 777 778 777 777 778 777 780 773 760 759 761 759 760 759 759 760 760 760 759 758 760 760 760 760 759 759 759 758 761 767 766 764 769 778 790 794 792 795 801 808 807 812 817 808 803 803 804 804 799 808 822 818 806 799 794 791 790 791 796 797 795 796 797 798 798 798 799 798
804 802 800 799 797 795 793 790 788 785 783 781 780 780 779 778 776 776 777 775 776 777 777 779 777 778 783 774 761 759 760 759 758 758 758 759 759 759 757 757 758 759 760 759 759 758 758 760 763 766 767 768 776 786 795 801 801 797 801 812 811 814 820 814 805 800 801 804 805 809 816 816 807 797 794 792 792 794 797 798 797 798 798 797 798 798 799 800
803 802 800 798 796 794 792 789 787 784 782 780 778 776 776 775 773 774 774 774 776 776 776 779 777 779 779 767 763 763 759 757 757 758 758 757 757 757 756 757 758 758 759 758 760 760 760 764 767 768 769 774 779 786 803 815 811 802 802 807 808 812 818 816 810 802 800 805 809 810 811 811 805 796 795 793 793 796 798 799 798 798 798 797 797 798 799 801
803 801 799 797 795 793 791 789 786 783 781 779 777 775 774 772 772 772 773 774 775 776 778 778 778 786 782 767 765 762 755 755 756 755 757 756 756 756 756 757 757 758 762 765 764 764 767 768 771 778 779 779 781 789 806 812 806 803 803 805 809 811 813 814 810 802 800 806 810 813 813 809 803 797 795 794 794 797 799 798 798 798 798 797 797 798 799 801
802 800 798 796 794 792 790 788 785 783 779 777 777 775 771 770 770 771 772 774 776 779 781 778 777 784 779 765 759 756 752 753 755 755 755 755 755 755 755 756 757 762 771 776 774 770 772 776 780 788 789 784 784 787 794 793 792 794 795 800 808 810 810 807 803 798 799 808 812 814 814 810 806 801 797 796 795 797 799 798 798 798 799 798 797 799 799 800
801 800 797 795 793 791 789 787 785 782 779 777 776 774 774 777 779 778 774 772 773 773 772 769 769 771 767 760 754 754 755 753 754 754 754 755 755 756 756 757 761 767 774 780 780 772 772 786 792 789 787 781 778 779 780 780 781 786 793 799 803 806 806 800 800 798 796 807 814 812 812 810 807 803 798 797 797 798 800 800 800 799 799 798 798 799 799 802
801 799 796 794 792 790 788 786 784 782 779 778 776 777 780 783 788 786 777 770 763 761 763 760 760 763 759 756 753 751 755 757 755 753 754 754 753 761 763 762 771 778 775 776 778 772 776 792 791 779 776 772 771 772 774 776 777 783 793 801 804 806 805 798 799 800 795 803 811 810 813 811 806 803 800 798 799 800 799 800 800 799 799 798 798 799 800 804
801 798 795 793 791 789 787 785 783 781 779 778 777 779 779 779 781 780 777 777 764 753 757 754 755 759 751 751 752 748 755 763 761 755 753 753 756 766 768 767 778 781 775 776 781 783 789 793 782 771 769 770 772 771 772 774 775 783 792 800 806 804 803 802 799 799 798 803 810 811 814 813 806 803 801 799 800 799 797 797 797 797 799 799 798 799 800 803
801 797 795 792 789 788 786 784 782 780 779 779 778 779 777 775 774 773 775 782 773 755 753 753 755 757 752 751 749 748 758 764 766 760 751 754 760 763 768 772 778 779 777 781 786 793 797 787 772 766 767 770 773 770 769 771 773 783 792 799 803 799 801 808 805 802 800 802 807 811 815 813 808 805 802 799 799 798 796 795 795 794 797 798 796 796 798 801
799 796 794 791 788 786 784 783 780 779 779 778 778 777 776 774 773 773 773 780 779 760 749 747 748 751 751 747 744 749 758 757 760 759 749 754 760 761 767 772 777 781 780 779 781 789 788 771 759 762 766 767 770 768 768 773 776 780 785 791 797 798 797 800 801 802 803 804 804 810 823 818 808 808 805 799 799 799 797 797 797 795 795 795 795 794 795 796
798 796 794 790 788 784 782 781 779 779 779 777 777 775 775 775 771 772 775 784 787 766 748 744 744 745 741 741 744 745 753 754 753 751 746 749 756 761 766 765 773 783 778 775 780 785 779 762 755 763 766 765 769 770 769 773 779 780 778 777 786 793 791 794 800 806 818 821 806 808 829 824 809 811 808 802 802 801 799 799 799 797 795 795 796 794 794 794
798 796 792 790 787 783 781 780 778 780 778 776 776 774 774 773 771 770 776 796 798 772 757 752 749 748 741 743 744 743 759 762 746 742 744 745 747 754 766 766 767 774 770 767 774 777 771 758 756 763 764 764 770 772 767 768 782 786 774 769 778 786 789 796 803 811 825 824 804 802 821 823 812 808 805 803 806 803 800 800 799 797 796 795 795 794 794 795
798 795 792 791 787 784 782 780 781 781 778 778 775 773 773 770 770 768 781 813 807 770 760 758 751 748 743 742 741 750 774 766 746 744 741 744 745 747 765 771 768 768 760 764 777 773 763 759 761 762 763 767 773 775 765 763 780 784 767 766 778 785 792 798 801 807 811 808 805 804 811 821 816 805 801 802 807 808 803 801 798 797 796 794 794 792 792 793
797 794 791 790 787 787 784 782 783 780 779 778 773 773 772 769 770 770 793 826 801 759 756 756 746 742 739 739 740 752 763 755 758 757 737 740 746 749 766 769 767 768 758 768 785 772 758 763 765 763 767 772 771 769 761 761 776 775 762 765 772 778 789 795 799 804 800 804 820 814 809 824 821 805 805 805 806 811 805 799 797 795 794 793 792 791 790 790
796 793 790 788 786 785 783 783 782 779 778 775 773 774 770 770 771 777 807 820 784 754 754 751 746 745 742 745 748 751 751 752 761 753 737 743 745 747 762 761 760 766 759 765 777 767 757 757 756 759 769 770 764 760 757 762 771 764 759 764 769 777 786 792 799 802 802 810 820 814 809 823 820 806 810 813 809 807 801 796 794 791 791 791 790 790 788 788
794 792 789 786 784 783 783 781 778 777 777 774 774 772 769 773 779 800 826 810 774 760 754 751 753 750 750 758 758 754 754 756 753 747 746 749 745 746 752 749 753 764 764 763 766 762 754 747 747 754 760 759 756 755 753 757 761 757 760 767 772 781 787 794 798 798 809 815 808 804 803 812 818 808 806 808 801 794 793 793 792 790 789 789 788 788 787 787
792 790 787 784 782 782 782 779 775 776 776 774 774 770 773 781 791 819 825 787 767 767 757 757 758 751 754 763 764 758 757 757 752 754 758 755 755 758 757 759 762 769 775 772 768 763 757 756 754 749 747 749 754 757 753 752 754 758 767 773 780 788 789 797 799 796 813 820 806 803 802 807 820 812 798 795 789 785 788 789 789 788 787 786 785 785 785 785
789 787 785 782 779 779 779 776 774 776 776 774 774 771 781 798 807 815 801 772 773 773 759 760 759 754 757 761 762 759 759 760 754 756 761 761 765 765 765 770 770 780 791 784 777 772 766 763 757 750 745 745 757 766 763 758 758 764 772 780 795 807 807 812 815 810 817 819 809 805 805 811 818 806 794 789 783 782 783 781 782 782 782 783 782 783 782 782
787 783 781 778 776 774 774 773 774 776 775 774 775 776 789 812 814 800 786 778 777 765 754 756 754 753 758 762 764 758 758 761 754 755 758 759 767 766 763 763 763 777 789 783 783 783 777 769 759 758 754 746 754 770 775 773 770 773 778 785 802 817 827 833 829 823 823 819 809 801 804 815 815 801 791 787 781 778 775 774 775 775 777 778 777 778 779 779
783 779 777 773 771 770 770 772 773 774 774 773 777 786 801 816 805 785 783 780 768 757 753 753 753 755 757 760 760 754 759 763 753 755 760 761 772 773 766 763 760 767 775 779 783 784 792 791 770 763 761 751 754 761 767 771 773 775 775 782 795 807 821 832 829 828 828 822 814 807 809 819 817 802 789 784 782 778 775 772 771 771 773 774 775 776 778 777
780 776 773 768 767 767 767 770 771 773 775 774 782 796 807 809 795 784 782 773 764 762 756 749 752 761 761 757 752 747 755 761 753 756 762 764 771 770 764 762 760 763 771 782 783 778 790 792 767 755 753 751 756 753 751 764 778 778 773 782 794 794 801 814 818 816 818 822 821 815 812 810 804 794 784 783 783 779 778 775 773 774 773 773 776 776 776 777
776 771 769 766 765 765 766 768 770 772 774 777 791 802 801 793 784 781 774 765 766 769 765 759 757 764 768 762 757 750 748 753 754 759 763 762 763 761 759 758 755 757 763 773 780 779 787 786 764 755 754 749 754 752 747 759 776 780 781 789 788 780 786 805 816 809 809 824 825 816 815 809 800 795 786 784 785 782 780 779 777 777 775 775 778 776 776 777
774 769 766 764 762 764 766 766 768 772 774 781 795 798 790 781 774 771 766 761 763 764 770 775 765 763 771 768 763 756 751 753 756 761 765 763 762 759 756 754 750 751 752 759 771 773 780 784 767 760 764 754 747 750 750 751 760 775 788 786 779 780 785 798 816 820 822 832 825 816 820 818 813 809 794 787 791 788 784 782 780 779 777 777 777 775 776 776
774 770 766 761 761 763 765 767 768 771 775 785 795 791 783 777 769 765 763 761 762 762 772 780 768 760 767 771 768 757 754 760 762 763 766 766 765 758 754 755 750 747 745 749 763 766 770 784 775 762 766 760 747 755 765 760 753 763 774 772 777 797 802 803 817 828 834 839 830 822 823 819 818 815 804 798 797 792 788 785 784 783 780 779 777 775 775 776
776 774 769 762 760 762 765 768 769 773 781 791 798 790 780 775 767 761 760 761 762 765 772 772 763 760 763 767 769 761 756 761 763 765 766 767 767 757 751 754 752 749 745 746 762 766 766 785 787 768 762 762 758 766 780 778 765 761 767 770 777 792 800 804 812 819 827 838 839 832 827 822 816 810 806 803 797 792 790 787 786 785 782 780 779 776 775 776
779 779 774 765 763 765 765 768 771 778 787 791 792 786 777 773 767 759 756 759 761 764 767 764 760 764 764 762 764 761 758 759 759 762 763 762 764 759 751 750 751 752 749 748 760 766 767 783 791 777 765 769 774 774 777 781 776 774 780 785 786 788 792 800 810 813 818 830 840 840 835 825 809 799 799 799 794 791 789 788 786 785 783 782 780 779 777 776
783 785 779 768 768 768 767 773 778 783 788 788 785 781 776 772 767 760 755 756 758 756 754 756 757 761 762 761 762 759 758 758 756 759 761 760 764 764 754 746 748 751 753 756 763 767 771 780 788 786 780 780 779 768 764 769 771 775 782 786 788 789 794 808 822 822 817 821 828 834 837 822 799 792 793 790 789 789 787 787 787 785 783 783 781 780 778 776
788 789 778 770 773 771 770 779 782 782 785 784 780 776 772 769 766 763 757 754 756 751 746 748 752 754 757 758 758 757 758 759 757 759 762 759 760 760 751 743 744 747 753 764 766 762 766 776 785 791 787 781 774 763 760 764 764 769 776 780 784 788 793 808 823 820 817 820 818 823 832 817 793 789 789 786 786 786 784 785 786 785 782 781 780 778 777 775
793 789 774 768 771 771 776 785 784 782 782 778 773 770 768 767 766 764 760 757 756 752 748 748 748 750 752 752 754 756 757 758 757 758 760 759 754 749 744 740 743 746 753 766 767 760 765 778 788 792 787 778 771 764 761 761 764 773 778 777 781 785 786 794 802 804 811 819 817 824 833 814 790 786 787 786 785 783 782 782 783 784 782 780 779 776 775 775
796 790 776 769 769 770 780 788 786 785 782 775 773 771 766 764 764 763 762 759 756 752 752 751 747 748 749 746 750 754 755 759 760 755 756 758 752 745 741 738 741 747 753 761 763 762 773 785 791 800 803 797 790 785 779 773 772 778 781 777 777 781 784 790 794 798 809 814 811 824 830 809 789 787 787 786 785 782 782 782 782 784 783 781 779 776 775 773
795 790 780 772 768 770 778 781 780 784 782 779 779 774 769 765 759 757 758 756 751 749 752 750 745 745 746 745 748 750 749 755 759 755 753 755 752 746 742 740 741 746 751 753 752 757 772 783 787 801 815 817 814 807 796 788 782 780 780 778 777 781 785 790 797 806 814 811 808 816 818 802 788 787 787 786 784 783 782 782 784 785 784 782 780 778 776 772
797 794 788 780 773 773 777 775 777 783 783 784 784 776 771 769 759 751 752 752 747 743 745 746 742 744 747 748 752 754 749 749 753 755 755 756 755 748 743 741 742 746 749 749 748 755 771 778 779 788 799 802 801 794 784 784 786 784 782 779 779 782 782 787 800 808 807 809 811 806 800 797 792 787 785 784 784 783 782 784 786 786 784 782 779 778 775 772
801 799 796 795 788 783 783 780 780 784 783 785 786 778 771 769 763 755 750 749 745 740 741 742 741 747 752 751 755 757 752 749 751 753 754 754 752 748 743 743 746 747 746 747 748 756 773 781 778 780 782 782 783 781 776 780 783 782 781 780 779 782 783 786 794 796 795 808 815 800 791 798 794 784 782 783 782 784 783 783 785 784 781 779 778 777 775 773
800 798 795 798 799 797 795 790 785 785 783 782 782 777 772 770 768 764 755 748 743 741 745 748 745 747 749 750 755 759 756 755 755 753 753 753 752 752 751 750 749 746 745 750 751 756 773 782 777 777 779 776 775 776 774 775 777 775 776 777 776 779 782 783 785 785 787 797 800 789 789 795 788 781 782 782 781 782 781 781 782 782 781 779 779 780 777 776
799 799 795 795 798 800 798 792 787 787 785 782 781 776 773 771 769 765 757 753 751 745 745 754 753 747 746 747 752 759 759 759 760 756 752 752 753 756 760 759 754 748 748 755 754 755 769 779 774 775 778 774 771 771 770 771 775 775 773 773 774 777 779 777 779 781 781 783 784 784 790 791 786 785 784 781 781 780 778 780 780 781 782 782 782 781 779 778
803 804 800 799 799 797 794 790 788 789 786 783 782 777 771 771 770 766 758 757 761 753 747 755 757 749 748 748 749 755 755 754 757 754 749 752 754 755 758 759 755 752 753 757 758 758 766 776 774 773 780 780 772 770 772 774 776 776 775 773 773 776 778 775 776 780 782 784 785 789 796 795 789 787 784 781 780 779 778 779 778 779 781 782 782 781 779 779
805 804 801 803 802 796 793 790 789 793 790 784 783 780 774 772 769 768 762 753 754 756 752 754 755 749 748 750 752 755 752 747 751 749 745 748 750 748 749 749 749 754 757 758 760 761 765 774 773 775 788 789 777 776 779 774 773 777 778 775 772 774 777 775 774 778 781 784 789 795 799 795 788 785 784 782 781 780 778 776 776 778 780 782 782 781 779 779
805 803 799 802 802 796 794 793 792 794 792 785 783 781 778 772 765 766 768 757 749 750 748 747 750 751 754 757 756 753 747 743 743 741 738 739 739 737 739 740 741 748 754 758 761 762 765 771 774 780 792 792 781 780 780 777 786 791 781 772 772 772 774 775 775 775 773 775 784 792 790 785 784 784 784 783 782 780 778 776 778 780 780 781 781 780 779 778